ECHOSTAR 25

Last updated on Mon Sep 07 2026 00:03:03 GMT+0000 (Coordinated Universal Time)

1 68126U 26045A 26249.56998157 -.00000073 00000+0 00000+0 0 9992 2 68126 0.0149 163.1914 0001378 356.3393 281.3459 1.00270617 1800
UTC large
Height (km)
Speed (km/s)
/
Latitude / Longitude
Inclination (degrees)
Orbital Period (minutes)
Azimuth
Elevation
Range (km)
Doppler Factor

Next 0 passes for location: London (51.5072 / 0.1276)

No passes found over London.
ECHOSTAR 25